Bierset, Belgium

9:06 AM CEST on July 26, 2017 (GMT +0200)
Liege

Weather History for EBLG - September, 2012

Change the Weather History Date:

Thursday, September 20, 2012

  Actual Average Record
Temperature  
Mean Temperature 50 °F -  
Max Temperature 59 °F 59 °F 86 °F (2003)
Min Temperature 42 °F 47 °F 42 °F (2008)
Degree Days  
Heating Degree Days 14    
Moisture  
Dew Point 40 °F    
Average Humidity 65    
Maximum Humidity 87    
Minimum Humidity 36    
Precipitation  
Precipitation 0.00 in - - ()
Sea Level Pressure  
Sea Level Pressure 30.20 in    
Wind  
Wind Speed 7 mph ()    
Max Wind Speed 14 mph    
Max Gust Speed -    
Visibility 8.7 miles    
Events      
Averages and records for this station are not official NWS values.
T = Trace of Precipitation, MM = Missing Value Source: Averaged Metar Reports

Daily Weather History Graph

Daily Weather History Graph

Search for Another Location

Airport or City:

Trip Planner

Search our weather history database for the weather conditions in past years. The results will help you decide how hot, cold, wet, or windy it might be!

Date:

Astronomy

Sep. 20, 2012 Rise Set
Actual Time 7:21 AM CEST 7:40 PM CEST
Civil Twilight 6:48 AM CEST 8:12 PM CEST
Nautical Twilight 6:10 AM CEST 8:51 PM CEST
Astronomical Twilight 5:29 AM CEST 9:32 PM CEST
Moon 12:59 PM CEST (9/20) 9:49 PM CEST (9/20)
Length of Visible Light 13h 23m
Length of Day
12h 18m
Waxing Crescent, 24% of the Moon is Illuminated
Sep 20
Waxing Crescent
Sep 22
First Quarter
Sep 30
Full
Oct 8
Last Quarter
Oct 15
New

Hourly Weather History & Observations

Time (CEST) Temp. Windchill Dew Point Humidity Pressure Visibility Wind Dir Wind Speed Gust Speed Precip Events Conditions
12:20 AM 48.2 °F - 41.0 °F 76% 30.21 in - South 5.8 mph - N/A   Clear
12:50 AM 46.4 °F 44.3 °F 41.0 °F 81% 30.21 in - South 4.6 mph - N/A   Clear
1:20 AM 46.4 °F 42.4 °F 41.0 °F 81% 30.24 in - South 8.1 mph - N/A   Clear
2:00 AM 46 °F - 40 °F 74% 30.25 in 19 mi SSW 8.9 mph - -   Partly Cloudy
2:20 AM 46.4 °F 42.4 °F 39.2 °F 76% 30.24 in - SSW 8.1 mph - N/A   Clear
2:50 AM 44.6 °F 40.2 °F 39.2 °F 81% 30.21 in 6.2 mi South 8.1 mph - N/A   Partly Cloudy
3:20 AM 44.6 °F 40.7 °F 39.2 °F 81% 30.21 in 6.2 mi South 6.9 mph - N/A   Partly Cloudy
3:50 AM 44.6 °F 40.2 °F 39.2 °F 81% 30.21 in 6.2 mi South 8.1 mph - N/A   Partly Cloudy
4:20 AM 44.6 °F 40.2 °F 39.2 °F 81% 30.21 in 6.2 mi South 8.1 mph - N/A   Partly Cloudy
4:50 AM 44.6 °F 40.2 °F 39.2 °F 81% 30.21 in 6.2 mi South 8.1 mph - N/A   Partly Cloudy
5:00 AM 44 °F - 39 °F 76% 30.24 in 16 mi South 6.7 mph - -   Scattered Clouds
5:20 AM 44.6 °F 40.7 °F 39.2 °F 81% 30.21 in 6.2 mi South 6.9 mph - N/A   Partly Cloudy
5:50 AM 44.6 °F 40.7 °F 39.2 °F 81% 30.21 in 6.2 mi South 6.9 mph - N/A   Partly Cloudy
6:20 AM 44.6 °F 42.2 °F 39.2 °F 81% 30.21 in - SSE 4.6 mph - N/A   Clear
6:50 AM 42.8 °F 40.1 °F 39.2 °F 87% 30.21 in - SSE 4.6 mph - N/A   Clear
7:20 AM 44.6 °F 40.7 °F 39.2 °F 81% 30.21 in - South 6.9 mph - N/A   Clear
7:50 AM 44.6 °F 40.2 °F 39.2 °F 81% 30.21 in - South 8.1 mph - N/A   Clear
8:00 AM 44 °F - 39 °F 76% 30.24 in 16 mi South 8.9 mph - -   Clear
8:20 AM 44.6 °F 41.4 °F 39.2 °F 81% 30.21 in - South 5.8 mph - N/A   Clear
8:50 AM 44.6 °F 39.7 °F 39.2 °F 81% 30.21 in - SSE 9.2 mph - N/A   Clear
9:20 AM 46.4 °F 42.4 °F 41.0 °F 81% 30.21 in - South 8.1 mph - N/A   Clear
9:50 AM 50.0 °F - 41.0 °F 71% 30.24 in - South 9.2 mph - N/A   Clear
10:20 AM 51.8 °F - 42.8 °F 71% 30.21 in - South 10.4 mph - N/A   Clear
10:50 AM 53.6 °F - 42.8 °F 67% 30.24 in - SW 10.4 mph - N/A   Clear
11:00 AM 53 °F - 42 °F 57% 30.25 in 16 mi SW 11.2 mph - -   Mostly Cloudy
11:20 AM 53.6 °F - 42.8 °F 67% 30.24 in - SW 13.8 mph - N/A   Clear
11:50 AM 55.4 °F - 42.8 °F 63% 30.24 in 6.2 mi SW 11.5 mph - N/A   Scattered Clouds
12:20 PM 57.2 °F - 39.2 °F 51% 30.24 in 6.2 mi SSW 13.8 mph - N/A   Scattered Clouds
12:50 PM 55.4 °F - 39.2 °F 54% 30.21 in 6.2 mi SW 10.4 mph - N/A   Partly Cloudy
1:20 PM 55.4 °F - 39.2 °F 54% 30.21 in 6.2 mi SSW 11.5 mph - N/A   Partly Cloudy
1:50 PM 57.2 °F - 37.4 °F 48% 30.21 in 6.2 mi SSW 8.1 mph - N/A   Partly Cloudy
2:00 PM 58 °F - 38 °F 36% 30.23 in 16 mi SSW 6.7 mph - -   Scattered Clouds
2:20 PM 57.2 °F - 37.4 °F 48% 30.21 in 6.2 mi WSW 6.9 mph - N/A   Partly Cloudy
2:50 PM 59.0 °F - 39.2 °F 48% 30.21 in 6.2 mi WSW 8.1 mph - N/A   Partly Cloudy
3:20 PM 59.0 °F - 39.2 °F 48% 30.18 in 6.2 mi SW 6.9 mph - N/A   Partly Cloudy
3:50 PM 59.0 °F - 37.4 °F 45% 30.18 in 6.2 mi WSW 6.9 mph - N/A   Partly Cloudy
4:20 PM 59.0 °F - 37.4 °F 45% 30.18 in 6.2 mi SSW 5.8 mph - N/A   Partly Cloudy
4:50 PM 57.2 °F - 39.2 °F 51% 30.18 in 6.2 mi SSW 4.6 mph - N/A   Scattered Clouds
5:00 PM 58 °F - 39 °F 37% 30.19 in 16 mi SSW 4.5 mph - -   Partly Cloudy
5:20 PM 59.0 °F - 39.2 °F 48% 30.18 in 6.2 mi SW 10.4 mph - N/A   Scattered Clouds
5:50 PM 59.0 °F - 39.2 °F 48% 30.15 in 6.2 mi SW 4.6 mph - N/A   Partly Cloudy
6:20 PM 57.2 °F - 39.2 °F 51% 30.15 in 6.2 mi SW 4.6 mph - N/A   Partly Cloudy
6:50 PM 57.2 °F - 41.0 °F 55% 30.15 in 6.2 mi West 4.6 mph - N/A   Partly Cloudy
7:20 PM 55.4 °F - 39.2 °F 54% 30.18 in 6.2 mi SSW 5.8 mph - N/A   Partly Cloudy
7:50 PM 55.4 °F - 39.2 °F 54% 30.18 in 6.2 mi SSW 4.6 mph - N/A   Partly Cloudy
8:00 PM 55 °F - 40 °F 45% 30.19 in 16 mi SSW 4.5 mph - -   Scattered Clouds
8:20 PM 55.4 °F - 39.2 °F 54% 30.18 in - Variable 2.3 mph - N/A   Clear
8:50 PM 51.8 °F - 39.2 °F 62% 30.18 in - SW 3.5 mph - N/A   Clear
9:20 PM 53.6 °F - 39.2 °F 58% 30.15 in - SSE 4.6 mph - N/A   Clear
9:50 PM 53.6 °F - 39.2 °F 58% 30.15 in - South 3.5 mph - N/A   Clear
10:20 PM 51.8 °F - 41.0 °F 67% 30.15 in - SE 5.8 mph - N/A   Clear
10:50 PM 51.8 °F - 41.0 °F 67% 30.15 in - SSE 6.9 mph - N/A   Clear
11:00 PM 52 °F - 42 °F 58% 30.18 in 16 mi SSE 6.7 mph - -   Clear
11:20 PM 51.8 °F - 41.0 °F 67% 30.15 in - SSE 6.9 mph - N/A   Clear
11:50 PM 51.8 °F - 41.0 °F 67% 30.15 in - SSE 6.9 mph - N/A   Clear